Location: *
(43.4667°N, 11.6833°E)
Time: 23:00:00
(UTC+00:00)

Cosmos 1703 Rocket - Pass Details

Date: 19 July 2019
Orbit: 606 x 633 km, 82.5° (Epoch: 23 August)

Event Time Altitude Azimuth Distance (km) Brightness Sun altitude
Rises 22:35:44 0° 353° (N) 2,921 8.4 -25.0°
Reaches altitude 10° 22:37:59 10° 355° (N) 2,013 7.2 -25.1°
Enters shadow 22:42:11 72° 45° (NE) 665 3.7 -25.2°
